When you browse on this site, cookies collect data to enhance your experience and personalize the content and advertising you see.
Visit our Privacy Policy to learn more. By continuing to use the site, you agree to this use of cookies and data.
  • en France
  • Liste des pays
  • À 7 jours
  • Température de l'eau
  • Carte météo
  • Widgets météo
  • user-avatar
    Se connecter

    Météo par heure à Primorsko-Dyuny

    Ce jour, 16 Septembre, Lundi

    Heure Température Précipitation Vent Pression Humidité
    00:00 +15°C° 0 mm 1 m/s 765 mmHg 85%
    01:00 +15°C° 0 mm 1 m/s 765 mmHg 86%
    02:00 +15°C° 0 mm 1 m/s 765 mmHg 86%
    03:00 +15°C° 0 mm 2 m/s 764 mmHg 87%
    04:00 +14°C° 0 mm 2 m/s 764 mmHg 88%
    05:00 +14°C° 0 mm 2 m/s 764 mmHg 89%
    06:00 +16°C° 0 mm 2 m/s 764 mmHg 80%
    07:00 +18°C° 0 mm 2 m/s 763 mmHg 72%
    08:00 +20°C° 0 mm 2 m/s 763 mmHg 63%
    09:00 +23°C° 0 mm 2 m/s 763 mmHg 54%
    10:00 +25°C° 0 mm 1 m/s 763 mmHg 45%
    11:00 +27°C° 0 mm 1 m/s 762 mmHg 36%
    12:00 +27°C° 0 mm 2 m/s 762 mmHg 36%
    13:00 +28°C° 0 mm 2 m/s 761 mmHg 35%
    14:00 +28°C° 0 mm 3 m/s 761 mmHg 34%
    15:00 +27°C° 0 mm 3 m/s 761 mmHg 36%
    16:00 +26°C° 0 mm 3 m/s 760 mmHg 39%
    17:00 +25°C° 0 mm 4 m/s 760 mmHg 42%
    18:00 +24°C° 0 mm 3 m/s 760 mmHg 46%
    19:00 +21°C° 0 mm 3 m/s 760 mmHg 50%
    20:00 +19°C° 0 mm 3 m/s 760 mmHg 54%
    21:00 +19°C° 0 mm 3 m/s 760 mmHg 53%
    22:00 +18°C° 0 mm 3 m/s 760 mmHg 52%
    23:00 +18°C° 0 mm 2 m/s 760 mmHg 51%

    Demain, 17 Septembre, Mardi

    Heure Température Précipitation Vent Pression Humidité
    00:00 +18°C° 0 mm 2 m/s 760 mmHg 51%
    01:00 +18°C° 0 mm 2 m/s 760 mmHg 52%
    02:00 +17°C° 0 mm 3 m/s 760 mmHg 52%
    03:00 +17°C° 0 mm 2 m/s 759 mmHg 51%
    04:00 +17°C° 0 mm 2 m/s 759 mmHg 50%
    05:00 +17°C° 0 mm 2 m/s 759 mmHg 50%
    06:00 +20°C° 0 mm 2 m/s 759 mmHg 45%
    07:00 +23°C° 0 mm 2 m/s 759 mmHg 41%
    08:00 +25°C° 0 mm 2 m/s 760 mmHg 36%
    09:00 +28°C° 0 mm 2 m/s 759 mmHg 32%
    10:00 +30°C° 0 mm 2 m/s 759 mmHg 27%
    11:00 +34°C° 0 mm 2 m/s 759 mmHg 23%
    12:00 +34°C° 0 mm 3 m/s 759 mmHg 22%
    13:00 +35°C° 0 mm 3 m/s 758 mmHg 22%
    14:00 +35°C° 0 mm 4 m/s 758 mmHg 22%
    15:00 +34°C° 0 mm 4 m/s 757 mmHg 23%
    16:00 +34°C° 0 mm 4 m/s 757 mmHg 24%
    17:00 +33°C° 0 mm 4 m/s 757 mmHg 25%
    18:00 +30°C° 0 mm 4 m/s 757 mmHg 28%
    19:00 +27°C° 0 mm 4 m/s 757 mmHg 31%
    20:00 +25°C° 0 mm 4 m/s 758 mmHg 33%
    21:00 +25°C° 0 mm 4 m/s 758 mmHg 34%
    22:00 +25°C° 0 mm 4 m/s 757 mmHg 35%
    23:00 +26°C° 0 mm 4 m/s 757 mmHg 36%

    Après-demain, 18 Septembre, Mercredi

    Heure Température Précipitation Vent Pression Humidité
    00:00 +25°C° 0 mm 4 m/s 757 mmHg 37%
    01:00 +25°C° 0 mm 4 m/s 757 mmHg 37%
    02:00 +25°C° 0 mm 3 m/s 757 mmHg 38%
    03:00 +25°C° 0 mm 3 m/s 757 mmHg 40%
    04:00 +24°C° 0 mm 3 m/s 757 mmHg 42%
    05:00 +24°C° 0 mm 3 m/s 757 mmHg 43%
    06:00 +25°C° 0 mm 3 m/s 757 mmHg 41%
    07:00 +27°C° 0 mm 3 m/s 757 mmHg 39%
    08:00 +28°C° 0 mm 3 m/s 757 mmHg 37%
    09:00 +30°C° 0 mm 3 m/s 758 mmHg 33%
    10:00 +33°C° 0 mm 3 m/s 758 mmHg 29%
    11:00 +35°C° 0 mm 3 m/s 758 mmHg 25%
    12:00 +35°C° 0 mm 4 m/s 758 mmHg 25%
    13:00 +35°C° 0 mm 4 m/s 758 mmHg 24%
    14:00 +35°C° 0 mm 5 m/s 758 mmHg 23%
    15:00 +32°C° 0 mm 6 m/s 758 mmHg 39%
    16:00 +28°C° 0 mm 7 m/s 759 mmHg 55%
    17:00 +24°C° 0 mm 9 m/s 759 mmHg 70%
    18:00 +23°C° 0 mm 8 m/s 760 mmHg 69%
    19:00 +22°C° 0 mm 8 m/s 761 mmHg 68%
    20:00 +21°C° 0 mm 7 m/s 762 mmHg 67%
    21:00 +20°C° 0 mm 7 m/s 762 mmHg 72%
    22:00 +20°C° 0 mm 6 m/s 763 mmHg 76%
    23:00 +19°C° 0 mm 6 m/s 763 mmHg 80%

    19 Septembre, Jeudi

    Heure Température Précipitation Vent Pression Humidité
    00:00 +19°C° 0 mm 5 m/s 763 mmHg 80%
    01:00 +19°C° 0 mm 5 m/s 763 mmHg 80%
    02:00 +19°C° 0 mm 4 m/s 763 mmHg 80%
    03:00 +19°C° 0 mm 4 m/s 763 mmHg 78%
    04:00 +19°C° 0 mm 4 m/s 763 mmHg 76%
    05:00 +19°C° 0 mm 4 m/s 763 mmHg 74%
    06:00 +20°C° 0 mm 4 m/s 763 mmHg 71%
    07:00 +20°C° 0 mm 4 m/s 763 mmHg 67%
    08:00 +21°C° 0 mm 5 m/s 763 mmHg 63%
    09:00 +22°C° 0 mm 5 m/s 764 mmHg 59%
    10:00 +23°C° 0 mm 5 m/s 764 mmHg 54%
    11:00 +23°C° 0 mm 5 m/s 764 mmHg 50%
    12:00 +25°C° 0 mm 5 m/s 764 mmHg 49%
    13:00 +25°C° 0 mm 5 m/s 763 mmHg 48%
    14:00 +25°C° 0 mm 5 m/s 763 mmHg 47%
    15:00 +23°C° 0 mm 5 m/s 763 mmHg 51%
    16:00 +22°C° 0 mm 4 m/s 763 mmHg 55%
    17:00 +21°C° 0 mm 4 m/s 762 mmHg 60%
    18:00 +20°C° 0 mm 4 m/s 763 mmHg 65%
    19:00 +19°C° 0 mm 4 m/s 763 mmHg 71%
    20:00 +18°C° 0 mm 3 m/s 763 mmHg 76%
    21:00 +18°C° 0 mm 3 m/s 763 mmHg 77%
    22:00 +17°C° 0 mm 2 m/s 763 mmHg 78%
    23:00 +17°C° 0 mm 2 m/s 763 mmHg 79%

    20 Septembre, Vendredi

    Heure Température Précipitation Vent Pression Humidité
    00:00 +18°C° 0 mm 1 m/s 763 mmHg 78%
    01:00 +19°C° 0 mm 1 m/s 763 mmHg 77%
    02:00 +19°C° 0 mm 1 m/s 763 mmHg 76%
    03:00 +18°C° 0 mm 1 m/s 762 mmHg 79%
    04:00 +16°C° 0 mm 2 m/s 762 mmHg 82%
    05:00 +16°C° 0 mm 3 m/s 762 mmHg 84%
    06:00 +15°C° 0 mm 4 m/s 762 mmHg 73%
    07:00 +17°C° 0 mm 4 m/s 763 mmHg 62%
    08:00 +18°C° 0 mm 4 m/s 763 mmHg 50%
    09:00 +17°C° 0 mm 5 m/s 763 mmHg 43%
    10:00 +17°C° 0 mm 6 m/s 764 mmHg 36%
    11:00 +18°C° 0 mm 7 m/s 764 mmHg 28%
    12:00 +20°C° 0 mm 7 m/s 764 mmHg 34%
    13:00 +20°C° 0 mm 7 m/s 764 mmHg 40%
    14:00 +21°C° 0 mm 8 m/s 763 mmHg 46%
    15:00 +21°C° 0 mm 7 m/s 764 mmHg 42%
    16:00 +20°C° 0 mm 7 m/s 764 mmHg 39%
    17:00 +20°C° 0 mm 6 m/s 764 mmHg 35%
    18:00 +19°C° 0 mm 6 m/s 765 mmHg 38%
    19:00 +16°C° 0 mm 5 m/s 765 mmHg 41%
    20:00 +15°C° 0 mm 5 m/s 766 mmHg 44%
    21:00 +14°C° 0 mm 5 m/s 767 mmHg 48%
    22:00 +14°C° 0 mm 5 m/s 767 mmHg 51%
    23:00 +13°C° 0 mm 5 m/s 767 mmHg 55%

    21 Septembre, Samedi

    Heure Température Précipitation Vent Pression Humidité
    00:00 +13°C° 0 mm 5 m/s 768 mmHg 56%
    01:00 +11°C° 0 mm 6 m/s 768 mmHg 57%
    02:00 +11°C° 0 mm 6 m/s 768 mmHg 58%
    03:00 +10°C° 0 mm 6 m/s 769 mmHg 59%
    04:00 +10°C° 0 mm 6 m/s 769 mmHg 59%
    05:00 +9°C° 0 mm 6 m/s 769 mmHg 59%
    06:00 +10°C° 0 mm 6 m/s 770 mmHg 55%
    07:00 +11°C° 0 mm 6 m/s 770 mmHg 52%
    08:00 +11°C° 0 mm 6 m/s 770 mmHg 48%
    09:00 +14°C° 0 mm 6 m/s 771 mmHg 44%
    10:00 +15°C° 0 mm 6 m/s 771 mmHg 40%
    11:00 +16°C° 0 mm 6 m/s 771 mmHg 36%
    12:00 +17°C° 0 mm 6 m/s 771 mmHg 35%
    13:00 +17°C° 0 mm 6 m/s 770 mmHg 34%
    14:00 +19°C° 0 mm 6 m/s 770 mmHg 33%
    15:00 +17°C° 0 mm 6 m/s 770 mmHg 35%
    16:00 +17°C° 0 mm 6 m/s 770 mmHg 37%
    17:00 +16°C° 0 mm 5 m/s 770 mmHg 39%
    18:00 +15°C° 0 mm 5 m/s 770 mmHg 45%
    19:00 +13°C° 0 mm 5 m/s 771 mmHg 52%
    20:00 +12°C° 0 mm 4 m/s 771 mmHg 58%
    21:00 +12°C° 0 mm 4 m/s 771 mmHg 59%
    22:00 +11°C° 0 mm 4 m/s 771 mmHg 59%
    23:00 +11°C° 0 mm 4 m/s 771 mmHg 59%
    Voir plus